Showing default

BEIDOU 3M18, 43707

Orbit data source: Space-Track

BEIDOU 3M18, 43707 is a payload satellite owned by CNSA (CN) in MEO that was launched on Sun, 18 Nov 2018 UTC via a CHANG ZHENG 3B/YZ-1 launch vehicle from the Xichang Space Center, China (XSC). Payload-class satellites include a variety of spacecraft equipped with specific instruments for various scientific and technological missions. These include communications satellites like Starlink; space stations such as the ISS; scientific satellites like the Hubble; Earth observation satellites from companies like Planet Labs, Umbra, and HawkEye 360; GPS; miniature CubeSats for education and research; and military/defense satellites.

Loading next visibility...
Identifier
43707, 2018-093B
Orbit
MEO
Country
Flag of CNCN / PRC
Related business
Manufacturer
CAST
Mission
Operational Defense Navigation
Bus & Motor
BD-3M/SAR, Unknown motor
Mass
1,014 kg wet, ~850 kg dry
Launch date (UTC)
2018-11-18 (8 years ago)
Launch vehicle
CHANG ZHENG 3B/YZ-1
Launch site
Xichang Space Center, China (XSC)
Object type
Payload
Rocket body
Debris
Shape & HBR
Box + 2 Pan, 5.0 m
Radar Cross Section
8.984 m², Large (>1 m²)

Expand to show TLE details & history
Last TLE update: 3 days ago

TLE from 3 days ago
0 BEIDOU 3M18
1 43707U 18093B   26170.32164601  .00000059  00000-0  00000-0 0  9995
2 43707  54.1697 182.2155 0008016 320.7909  39.1732  1.86226376 51578
Epoch: 2026-06-19T07:43Z
TLE epoch observation values (Epoch: 2026-06-19T07:43:10.215Z)
Latitude
-0.00001°
Longitude
158.87198°
Altitude
21,511.445 km
Speed
3.782 km/s
True Right ascension
12h 08m 52s
True Declination
0° 00' 00"
Sunlit
Object was in daylight at epoch
Visualization orbit readout
Latitude
Unknown
Longitude
Unknown
Altitude
Unknown
Speed
Unknown
Apparent Right ascension
Unknown
Apparent Declination
Unknown
Sunlit
N/A
Visualization observer readout
Local Sidereal Time
21:29:35
Azimuth
Unknown
Elevation
Unknown
Doppler factor
Unknown
Orbital elements
Apogee altitude
21,550.923 km
Perigee altitude
21,506.183 km
Semi-major axis
27,906.69 km
Eccentricity
0.0008
Inclination
54.1697°
RAAN
182.2155°
Arg. of periapsis
320.7909°
True anomaly
39.23127°
Mean anomaly
39.1732°
Eccentric anomaly
39.20223°
Mean motion
0.46557 °/min
Orbital period
773.25 mins
BSTAR
0
Loading maneuver chart data...
Computing Atmospheric mass density...
Loading historical data...
Loading historical data...
Loading historical data...
Loading historical data...
Loading historical data...
Loading historical data...
Loading historical data...
Other satellites on launch #93 in the year 2018 (2018-11-18 UTC)

Documentation

Showing up to 5 results
|